[[{"header":{"parameterUnit":"m.s-1","parameterCategory":1,"la1":30.2991,"la2":30.254,"lo1":-89.0895,"lo2":-89.0444,"dy":0.0017,"dx":0.0017,"nx":28,"ny":28,"refTime":"2024-05-15T09:00:00:Z","depth":0,"parameterNumber":2,"parameterNumberName":"U-component_of_WINDS"},"data":[0,0,0,0,0,0,0,0,0,0,0,0,0,0,0,0,0,0,0,0,0,0,0,0,0,0,0,0,0,0,0,0,0,0,0,0,0,0,0,0,0,0,0,0,0,0,0,0,0,0,0,0,0,0,0,0,0,0,-2.6205,-2.6205,0,-2.6175,-2.6175,-2.6174,-2.6111,-2.611,-2.6108,-2.6107,-2.6076,-2.6077,-2.6077,0,0,0,0,0,0,0,0,0,0,0,0,0,-2.6209,-2.6209,-2.6205,-2.6205,-2.6204,-2.6175,-2.6175,-2.6174,-2.6111,-2.611,-2.6108,-2.6107,-2.6076,-2.6077,-2.6077,0,0,0,0,0,0,0,0,0,0,0,0,0,-2.6196,-2.6209,-2.6205,-2.6169,-2.6166,-2.6175,-2.6175,-2.6174,-2.6111,-2.611,-2.6108,-2.6106,-2.6076,-2.6077,-2.6077,-2.6119,0,0,-2.6079,-2.6079,0,0,0,0,0,0,0,0,-2.6197,-2.6196,-2.6175,-2.6172,-2.6168,-2.6145,-2.6165,-2.6156,-2.6112,-2.6132,-2.6107,-2.6105,-2.6101,-2.6099,-2.6098,-2.6118,-2.6116,-2.6079,-2.6079,-2.608,-2.608,0,0,0,0,0,0,0,-2.6198,-2.6197,-2.6193,-2.6175,-2.617,-2.6155,-2.6151,-2.6163,-2.6127,-2.613,-2.6126,-2.6123,-2.6098,-2.6097,-2.6096,-2.6116,-2.6079,-2.6079,-2.608,-2.608,-2.6169,-2.6171,0,0,0,0,0,0,-2.6204,-2.6198,-2.6194,-2.6192,-2.6178,-2.6157,-2.6152,-2.6154,-2.6127,-2.6121,-2.6125,-2.612,-2.6097,-2.6096,-2.6095,-2.6142,-2.608,-2.608,-2.608,-2.6167,-2.617,-2.6172,0,0,0,0,0,0,-2.6204,-2.6204,-2.6195,-2.6194,-2.6192,-2.6159,-2.6161,-2.6154,-2.6153,-2.6123,-2.6116,-2.613,-2.6096,-2.6094,-2.6114,-2.614,-2.608,-2.6081,-2.6165,-2.6168,-2.6171,-2.6236,0,0,0,0,0,0,-2.6205,-2.6205,-2.622,-2.6195,-2.6192,-2.6214,-2.6163,-2.6155,-2.6154,-2.6148,-2.6126,-2.6121,-2.6094,-2.6113,-2.6114,-2.614,-2.6081,-2.6162,-2.6166,-2.617,-2.6232,-2.6241,-2.6249,0,0,0,0,0,-2.6205,-2.6239,-2.6221,-2.622,-2.621,-2.6216,-2.6214,-2.6183,-2.6157,-2.6172,-2.6153,-2.6121,-2.6138,-2.6116,-2.6116,-2.6142,-2.616,-2.6165,-2.6169,-2.6228,-2.6239,-2.6249,0,0,0,0,0,0,-2.6267,-2.6235,-2.6214,-2.6241,-2.6232,-2.6205,-2.6222,-2.6196,-2.6194,-2.6188,-2.615,-2.6145,-2.617,-2.6158,-2.6134,-2.6182,-2.6144,-2.6149,-2.6188,-2.6199,-2.6208,-2.6209,-2.6082,0,0,0,0,0,-2.6285,-2.6292,-2.6263,-2.629,-2.6286,-2.6256,-2.6257,-2.6234,-2.6222,-2.6218,-2.62,-2.619,-2.6193,-2.6196,-2.6197,-2.6231,-2.6225,-2.6249,-2.6258,-2.6266,-2.627,-2.6287,-2.6297,-2.6187,-2.6187,-2.6187,0,0,-2.632,-2.6303,-2.6309,-2.6302,-2.6292,-2.63,-2.6252,-2.6263,-2.6269,-2.622,-2.6236,-2.6224,-2.621,-2.6237,-2.6248,-2.6228,-2.6299,-2.6271,-2.6278,-2.6277,-2.6293,-2.6303,-2.6313,-2.619,-2.6189,-2.6189,0,0,-2.6387,-2.6376,-2.6396,-2.6388,-2.6373,-2.6353,-2.6358,-2.6336,-2.6325,-2.6342,-2.6305,-2.6312,-2.6318,-2.631,-2.6307,-2.6375,-2.6345,-2.6376,-2.6422,-2.6439,-2.6448,-2.6456,-2.6479,-2.6488,-2.6381,-2.6381,-2.6381,0,-2.6432,-2.6443,-2.6411,-2.6424,-2.6422,-2.6379,-2.64,-2.6393,-2.638,-2.638,-2.6358,-2.6365,-2.6353,-2.6377,-2.6394,-2.6393,-2.6398,-2.6377,-2.645,-2.6457,-2.6463,-2.6485,-2.6494,-2.6385,-2.6384,-2.6384,-2.6384,0,-2.6499,-2.6508,-2.6526,-2.6515,-2.6515,-2.6533,-2.6503,-2.6508,-2.6486,-2.6468,-2.6486,-2.6471,-2.6468,-2.6473,-2.6451,-2.6495,-2.6483,-2.6456,-2.6417,-2.6478,-2.6498,-2.6506,-2.639,-2.6389,-2.6388,-2.6387,0,0,-2.6603,-2.6575,-2.6582,-2.6576,-2.6558,-2.6564,-2.6581,-2.6578,-2.6583,-2.6576,-2.6588,-2.6596,-2.6571,-2.6568,-2.6545,-2.6561,-2.6615,-2.6532,-2.6531,-2.6547,-2.6662,-2.6681,-2.6691,-2.6597,-2.6598,-2.6599,-2.6663,0,-2.6665,-2.669,-2.6662,-2.6693,-2.6701,-2.6661,-2.6675,-2.6666,-2.6651,-2.6655,-2.6639,-2.6644,-2.6612,-2.6609,-2.6623,-2.6605,-2.6637,-2.6601,-2.6607,-2.6608,-2.661,-2.6702,-2.6722,-2.6782,-2.667,-2.6672,-2.6673,0,-2.6741,-2.6738,-2.6769,-2.675,-2.6752,-2.6765,-2.6762,-2.6767,-2.6756,-2.6744,-2.6742,-2.6715,-2.673,-2.6694,-2.6714,-2.669,-2.6692,-2.6684,-2.6685,-2.6683,-2.6643,-2.6701,-2.68,-2.6809,-2.6685,-2.6684,-2.6683,0,-2.6812,-2.6816,-2.6836,-2.6833,-2.6811,-2.6821,-2.6813,-2.68,-2.6801,-2.6798,-2.6799,-2.6798,-2.6797,-2.6798,-2.6772,-2.6748,-2.6796,-2.6757,-2.6786,-2.6786,-2.6796,-2.6795,-2.6895,-2.68,-2.6799,-2.6799,-2.6799,0,-2.6884,-2.6905,-2.6868,-2.6879,-2.6902,-2.6871,-2.6894,-2.6882,-2.6872,-2.6881,-2.6847,-2.6857,-2.6823,-2.6829,-2.6809,-2.6829,-2.6829,-2.682,-2.6814,-2.6822,-2.6823,-2.6821,-2.6816,-2.6802,-2.6801,-2.6801,-2.68,0,-2.6966,-2.6943,-2.6961,-2.694,-2.6935,-2.6953,-2.6934,-2.6945,-2.6929,-2.6941,-2.6942,-2.6916,-2.6922,-2.6897,-2.6898,-2.6885,-2.6914,-2.6902,-2.6918,-2.6913,-2.6943,-2.694,-2.7044,-2.7056,-2.6954,-2.6955,-2.6956,0,-2.7013,-2.7028,-2.7009,-2.7012,-2.7006,-2.7012,-2.7013,-2.6984,-2.6986,-2.6976,-2.6988,-2.6991,-2.6992,-2.7003,-2.6985,-2.6986,-2.6973,-2.7009,-2.6972,-2.698,-2.6972,-2.6971,-2.6972,-2.7016,-2.7017,-2.7018,-2.7019,0,-2.7098,-2.7085,-2.7088,-2.7087,-2.7089,-2.7086,-2.7082,-2.7087,-2.7056,-2.706,-2.7066,-2.7066,-2.7068,-2.7072,-2.707,-2.7061,-2.7035,-2.7032,-2.7038,-2.7045,-2.7053,-2.7048,-2.6937,-2.7029,-2.7028,-2.7027,-2.7026,-2.7026,-2.7163,-2.7174,-2.7163,-2.7167,-2.7161,-2.7158,-2.7166,-2.7152,-2.7156,-2.7155,-2.7138,-2.7147,-2.7137,-2.7131,-2.7126,-2.7133,-2.7116,-2.7125,-2.7127,-2.713,-2.7135,-2.7054,-2.7133,-2.7132,-2.7132,-2.7132,-2.7132,0,-2.7245,-2.7236,-2.724,-2.7235,-2.7239,-2.7215,-2.7209,-2.7214,-2.7222,-2.7215,-2.7217,-2.7224,-2.7227,-2.721,-2.7212,-2.7221,-2.7209,-2.7222,-2.722,-2.7219,-2.715,-2.7144,-2.7231,-2.7231,-2.7231,-2.7231,-2.7231,-2.7231,-2.7288,-2.7307,-2.7294,-2.7309,-2.73,-2.7308,-2.7307,-2.7304,-2.7299,-2.7308,-2.7311,-2.73,-2.7289,-2.729,-2.7293,-2.7287,-2.7289,-2.7306,-2.7297,-2.7233,-2.7223,-2.7214,-2.7208,-2.7307,-2.7307,-2.7364,-2.7365,-2.7365]},{"header":{"parameterUnit":"m.s-1","parameterCategory":1,"la1":30.2991,"la2":30.254,"lo1":-89.0895,"lo2":-89.0444,"dy":0.0017,"dx":0.0017,"nx":28,"ny":28,"refTime":"2024-05-15T09:00:00:Z","depth":0,"parameterNumber":3,"parameterNumberName":"V-component_of_WINDS"},"data":[0,0,0,0,0,0,0,0,0,0,0,0,0,0,0,0,0,0,0,0,0,0,0,0,0,0,0,0,0,0,0,0,0,0,0,0,0,0,0,0,0,0,0,0,0,0,0,0,0,0,0,0,0,0,0,0,0,0,3.2215,3.2215,0,3.2271,3.2272,3.2272,3.2288,3.2288,3.2288,3.2287,3.2341,3.2343,3.2345,0,0,0,0,0,0,0,0,0,0,0,0,0,3.2119,3.2121,3.2215,3.2216,3.2216,3.2271,3.2272,3.2272,3.2288,3.2288,3.2288,3.2287,3.2341,3.2343,3.2345,0,0,0,0,0,0,0,0,0,0,0,0,0,3.2166,3.2121,3.2215,3.2231,3.2233,3.2271,3.2272,3.2273,3.2288,3.2288,3.2288,3.2287,3.234,3.2343,3.2345,3.237,0,0,3.2353,3.2354,0,0,0,0,0,0,0,0,3.2164,3.217,3.2228,3.223,3.2232,3.2272,3.2258,3.2305,3.2289,3.2267,3.2287,3.2287,3.2319,3.2323,3.2334,3.2372,3.2375,3.2353,3.2355,3.2356,3.2357,0,0,0,0,0,0,0,3.216,3.2167,3.2237,3.2229,3.2231,3.2234,3.2241,3.2267,3.2294,3.2269,3.227,3.2277,3.232,3.2332,3.2336,3.2375,3.2353,3.2355,3.2357,3.2358,3.2437,3.2438,0,0,0,0,0,0,3.2155,3.2165,3.2235,3.2239,3.2196,3.2237,3.2244,3.226,3.2294,3.2299,3.2277,3.2278,3.2328,3.2333,3.2338,3.2369,3.2356,3.2358,3.236,3.2437,3.2437,3.2438,0,0,0,0,0,0,3.2153,3.2161,3.2233,3.2202,3.2211,3.2239,3.2257,3.2261,3.2273,3.2301,3.2305,3.2285,3.2327,3.2334,3.2362,3.2371,3.2359,3.2362,3.2436,3.2437,3.2438,3.2432,0,0,0,0,0,0,3.215,3.216,3.217,3.2202,3.2213,3.2257,3.2257,3.2262,3.2278,3.2279,3.2309,3.2313,3.2328,3.2358,3.2365,3.2375,3.2364,3.2435,3.2436,3.2437,3.2432,3.2433,3.2434,0,0,0,0,0,3.2146,3.2166,3.2171,3.2179,3.2227,3.2258,3.2264,3.2281,3.2279,3.2289,3.2307,3.2312,3.2369,3.2361,3.2368,3.2379,3.2435,3.2436,3.2437,3.2431,3.2433,3.2434,0,0,0,0,0,0,3.2133,3.217,3.2176,3.2207,3.2229,3.226,3.2274,3.2282,3.2304,3.2304,3.2323,3.233,3.2356,3.237,3.2361,3.2405,3.2402,3.2405,3.2395,3.2397,3.2397,3.2394,3.2366,0,0,0,0,0,3.2134,3.2157,3.2188,3.2212,3.2223,3.2246,3.226,3.2272,3.2295,3.2305,3.2324,3.2346,3.2369,3.2383,3.2406,3.2434,3.2441,3.2445,3.2446,3.2447,3.2449,3.2465,3.2468,3.2442,3.2442,3.2442,0,0,3.2135,3.2158,3.2171,3.2209,3.2228,3.2251,3.2254,3.2278,3.2295,3.2308,3.2336,3.2351,3.2377,3.2405,3.2418,3.2418,3.2457,3.2448,3.2449,3.2451,3.2467,3.2469,3.2471,3.2443,3.2443,3.2443,0,0,3.2149,3.2169,3.2192,3.2211,3.224,3.2256,3.2261,3.2291,3.2302,3.2331,3.2342,3.2361,3.24,3.2418,3.2432,3.2454,3.2461,3.2461,3.2466,3.2482,3.2484,3.2486,3.2494,3.2497,3.2463,3.2463,3.2463,0,3.2147,3.2183,3.2202,3.2226,3.2242,3.2256,3.2279,3.2296,3.233,3.2341,3.234,3.2389,3.2407,3.244,3.2446,3.2457,3.2463,3.2458,3.2482,3.2485,3.2487,3.2495,3.2498,3.2463,3.2463,3.2463,3.2463,0,3.218,3.2204,3.2219,3.2253,3.2271,3.2294,3.2315,3.2331,3.2341,3.2356,3.2386,3.2408,3.2435,3.2444,3.2453,3.2478,3.2477,3.2479,3.2476,3.2489,3.2496,3.25,3.2463,3.2463,3.2463,3.2463,0,0,3.2187,3.2232,3.2237,3.2253,3.2286,3.2305,3.2328,3.2357,3.237,3.2393,3.2413,3.2446,3.2448,3.2464,3.2475,3.2489,3.2505,3.2489,3.249,3.2492,3.2535,3.2534,3.2537,3.251,3.251,3.2511,3.2533,0,3.2206,3.225,3.2268,3.2303,3.2326,3.234,3.236,3.2382,3.2397,3.2418,3.2435,3.2458,3.2459,3.2469,3.2483,3.25,3.2514,3.2499,3.2528,3.2529,3.2522,3.2541,3.254,3.256,3.2536,3.2537,3.2537,0,3.2234,3.2259,3.2297,3.2328,3.2338,3.2357,3.2384,3.2404,3.2429,3.2439,3.2458,3.2468,3.2493,3.2488,3.2522,3.2511,3.2524,3.2534,3.2536,3.2539,3.2534,3.2546,3.2567,3.257,3.2542,3.2542,3.2541,0,3.2237,3.2279,3.2308,3.2321,3.2357,3.237,3.2386,3.241,3.2426,3.245,3.246,3.2486,3.25,3.2519,3.2536,3.2531,3.2569,3.2565,3.2577,3.2577,3.2585,3.2584,3.2608,3.2592,3.2592,3.2592,3.2592,0,3.2257,3.2279,3.231,3.2327,3.2353,3.2373,3.2397,3.2413,3.2436,3.2456,3.2468,3.2487,3.2508,3.2529,3.2543,3.2569,3.2575,3.2583,3.2587,3.2583,3.2582,3.2591,3.2591,3.2593,3.2593,3.2593,3.2592,0,3.2264,3.2285,3.2317,3.2349,3.2358,3.2376,3.2403,3.242,3.2436,3.2461,3.2468,3.2493,3.2519,3.2538,3.257,3.2579,3.2607,3.261,3.2599,3.2601,3.2612,3.2611,3.2644,3.2649,3.2629,3.2629,3.2629,0,3.2275,3.2293,3.2328,3.2343,3.2359,3.2383,3.24,3.242,3.2437,3.2467,3.248,3.2507,3.253,3.257,3.259,3.2615,3.2619,3.2629,3.2623,3.2618,3.262,3.2619,3.2621,3.263,3.263,3.263,3.263,0,3.2294,3.2303,3.2328,3.2356,3.2376,3.2399,3.2421,3.2433,3.2457,3.2475,3.2502,3.2519,3.2553,3.258,3.2607,3.2622,3.263,3.2632,3.2636,3.2632,3.2625,3.2629,3.2602,3.2631,3.2631,3.2631,3.2631,3.2631,3.2304,3.2321,3.2348,3.2375,3.2394,3.2415,3.2433,3.2452,3.2475,3.2506,3.2515,3.2543,3.2568,3.2606,3.2621,3.2643,3.2643,3.2648,3.265,3.2651,3.2651,3.2621,3.2648,3.2648,3.2648,3.2648,3.2648,0,3.2323,3.2342,3.2366,3.2398,3.2419,3.2426,3.2452,3.2468,3.2493,3.2516,3.2538,3.2569,3.2595,3.2618,3.2644,3.2657,3.2661,3.2663,3.2663,3.2666,3.265,3.2644,3.266,3.266,3.266,3.266,3.266,3.266,3.2336,3.2365,3.2378,3.2417,3.2435,3.2464,3.2478,3.2497,3.2516,3.255,3.2572,3.2587,3.261,3.2638,3.2662,3.2668,3.2677,3.2678,3.2685,3.2669,3.2667,3.2666,3.2661,3.268,3.268,3.27,3.27,3.27]}]]